SCP
0 1 1 1 1 0 0 0 0 0 0 0 0 0 0 0 1 1 1 1 2 2 1 1 1 1 1 1 1 1 1 1 1 0 0 0 0 1 1 1 1 1 1 1 1 1 1 1 1
1 1 1 1 1 0 0 0 0 0 0 0 0 0 0 1 1 1 1 1 2 2 1 1 1 1 1 1 1 1 1 1 1 1 0 0 1 1 1 1 1 1 1 1 1 1 1 1 1
1 1 1 0 0 0 0 0 0 0 0 0 0 0 1 1 1 1 1 1 2 2 2 1 1 1 1 1 1 1 1 1 1 1 1 1 1 1 1 1 1 1 1 1 1 1 1 1 1
0 0 0 0 0 0 0 0 0 0 0 0 0 1 1 1 1 1 1 1 1 2 2 1 1 1 1 1 1 1 1 1 1 1 1 1 1 1 1 1 1 1 1 1 1 1 1 1 1
0 0 0 0 0 0 0 0 0 0 0 0 1 1 1 1 1 1 1 1 1 2 2 2 1 1 1 1 1 1 1 1 1 1 1 1 1 1 1 1 1 1 1 1 1 1 1 1 1
0 0 0 0 0 0 0 0 0 0 0 0 1 1 1 1 1 1 1 1 1 2 2 2 2 1 1 1 1 1 1 2 2 2 1 1 1 1 1 1 1 1 1 1 1 1 1 1 1
0 0 0 0 0 1 0 0 0 0 0 0 1 1 1 2 1 1 1 1 1 2 2 2 1 1 1 1 2 2 2 2 2 2 2 2 1 1 1 1 1 1 1 1 1 1 1 1 1
0 0 0 0 0 1 1 0 0 0 0 0 0 1 2 2 2 1 1 1 1 1 2 1 1 1 1 1 2 2 2 3 3 2 2 2 2 2 2 1 1 1 1 1 1 1 1 1 1
0 0 0 0 1 1 1 0 0 0 0 0 1 1 2 2 1 1 1 1 1 1 1 1 1 1 1 2 2 2 3 3 3 3 3 3 3 3 3 3 2 2 2 2 2 2 2 1 1
0 0 0 0 1 1 1 0 0 0 0 1 1 1 1 1 1 1 1 1 2 2 2 2 2 2 2 2 2 3 3 3 3 3 4 4 5 5 5 4 4 3 3 2 2 2 2 2 1
0 0 0 0 1 1 0 0 0 0 0 1 1 1 1 1 2 2 2 2 2 2 2 2 2 3 3 3 3 3 3 3 4 4 5 5 6 6 7 6 6 6 4 3 3 3 2 2 2
0 0 0 1 1 0 0 0 0 0 0 1 1 2 2 2 3 4 3 3 4 4 3 3 3 4 4 4 4 4 4 4 5 5 6 6 6 7 8 8 8 8 6 5 4 3 3 2 2
0 0 0 0 0 0 0 0 0 0 1 1 1 2 2 4 5 4 3 3 5 5 4 4 5 5 6 5 5 5 5 5 5 6 6 6 6 7 8 8 8 8 7 6 5 4 3 3 3
0 0 0 1 1 1 1 0 0 0 1 1 1 2 3 5 6 4 3 4 5 5 5 5 6 7 7 7 6 6 6 6 6 6 5 5 6 7 7 8 8 7 7 6 5 4 3 3 3
0 0 1 1 1 1 1 0 0 1 1 1 1 3 5 6 5 3 3 4 5 5 6 6 7 7 8 8 7 7 6 6 6 5 5 4 5 5 5 6 6 6 6 6 5 4 3 3 3
0 0 1 1 1 1 0 0 1 1 1 1 2 4 5 5 4 3 3 4 5 5 7 7 7 7 8 8 8 7 6 6 5 5 4 4 4 4 4 4 5 5 5 6 6 5 5 4 4
0 1 1 1 1 0 0 1 1 1 1 1 3 4 4 4 3 3 3 4 4 5 7 9 9 8 8 8 8 7 6 5 5 5 5 5 4 4 4 4 4 4 5 6 6 7 7 6 5
0 1 1 1 1 0 0 1 1 1 1 2 3 4 4 4 3 3 3 4 4 7 11 14 13 11 9 8 8 7 5 4 4 5 6 6 6 5 5 5 4 5 5 6 7 8 8 8 7
0 0 1 1 1 0 1 1 2 2 2 3 3 4 4 4 3 3 4 4 5 9 18 21 17 13 10 8 8 6 4 3 4 5 7 8 7 6 6 7 6 6 6 7 7 8 8 7 7
0 0 1 1 1 0 1 2 2 3 3 3 3 4 4 4 4 4 5 5 6 11 17 22 20 14 10 8 7 5 4 4 4 5 7 9 10 9 8 8 7 7 7 6 6 6 6 5 4
0 0 1 1 1 1 1 1 2 3 3 3 3 3 4 4 5 6 6 6 7 9 12 15 16 14 10 8 6 6 5 5 5 6 8 11 13 12 9 7 6 6 6 5 5 5 4 4 4
0 0 1 1 1 1 1 1 1 2 2 2 3 3 4 5 7 8 8 7 7 8 9 9 11 12 10 8 6 7 8 8 8 9 11 12 11 9 7 5 4 4 4 4 4 4 4 4 4
0 0 0 1 1 1 1 1 1 2 2 3 3 4 5 6 8 10 10 8 7 7 8 9 9 10 9 7 6 7 8 9 10 11 11 9 7 5 5 4 3 3 4 4 5 4 4 4 5
0 0 1 1 1 1 1 1 1 2 2 3 4 6 6 6 8 11 11 10 9 8 9 11 12 11 9 8 6 6 8 10 11 10 9 7 6 5 4 3 3 3 3 4 5 6 5 5 5
0 1 1 2 1 1 1 1 2 2 3 4 6 9 9 7 8 11 12 11 11 11 11 13 13 12 10 8 7 7 7 9 10 9 7 6 6 5 4 4 4 4 4 4 5 6 6 6 6
1 1 2 2 1 1 1 1 2 2 3 4 6 9 10 9 9 11 12 12 11 11 12 13 13 12 10 9 8 7 7 7 7 7 6 6 6 5 5 4 4 4 4 4 4 5 6 6 7
1 1 1 1 1 1 1 2 2 3 3 4 4 6 8 9 9 10 12 12 10 10 12 13 13 12 10 9 8 8 7 6 6 6 6 6 6 6 6 6 6 5 4 4 4 4 5 6 7
1 1 1 1 1 1 2 2 3 3 4 4 3 4 7 8 7 8 10 10 9 10 14 15 13 11 10 8 8 7 7 6 6 7 8 7 7 8 8 7 7 7 6 6 5 5 6 7 7
1 0 0 1 1 1 2 2 3 3 3 4 3 5 7 7 6 7 8 8 9 11 13 13 12 10 9 8 7 7 6 6 6 7 8 8 7 7 7 7 7 8 8 8 7 7 7 8 8
0 0 1 1 1 1 1 2 3 3 3 3 4 6 7 7 7 7 7 8 9 10 10 10 10 9 8 8 7 7 6 6 6 7 7 7 7 6 5 6 6 8 8 9 8 8 8 9 9
Wind_Speed
8 10 9 7 6 3 1 3 9 11 11 11 11 10 15 15 11 10 9 12 16 16 14 13 11 10 10 9 8 8 7 7 8 8 7 8 8 8 7 7 7 7 7 7 7 7 7 6 6
9 12 10 7 5 0 3 5 11 12 10 8 10 12 15 15 13 12 10 12 16 15 13 12 11 10 9 9 8 8 7 7 7 7 7 7 7 7 7 7 7 7 7 7 7 7 7 7 6
11 14 8 7 3 2 3 6 10 10 8 7 10 12 12 10 12 10 10 13 15 14 14 13 12 11 9 8 8 8 7 7 7 7 6 6 7 7 6 6 6 6 6 6 6 6 6 6 5
9 8 8 6 2 3 4 7 8 8 8 7 9 11 12 11 11 12 11 12 14 14 14 14 12 11 10 8 8 7 7 7 6 6 5 6 6 6 5 6 6 6 5 6 5 5 5 5 4
10 8 9 4 2 3 5 7 6 6 8 9 11 14 13 12 13 12 11 11 12 14 14 14 13 11 10 9 8 7 6 6 5 5 5 4 4 4 4 5 4 5 4 4 4 4 4 4 3
8 8 8 3 1 3 5 6 7 7 6 8 11 14 12 11 10 11 10 10 11 14 14 13 13 12 10 9 8 7 6 5 5 4 3 3 3 3 4 4 3 3 3 3 3 3 2 2 2
10 11 8 3 1 3 5 5 6 5 5 7 9 11 12 11 9 9 10 9 11 14 13 10 10 10 10 9 8 7 6 5 4 4 3 2 3 4 4 4 3 2 2 2 2 2 1 0 0
10 10 10 5 3 3 6 5 5 5 5 7 7 8 11 11 8 8 9 9 10 11 12 11 10 8 8 8 8 7 6 5 4 3 2 2 3 5 5 5 4 3 2 2 2 2 2 2 2
12 11 9 5 2 5 5 5 5 5 5 7 9 11 14 13 10 9 9 8 8 8 8 9 10 8 7 8 8 7 6 4 4 3 3 3 3 3 4 3 5 4 4 4 4 4 4 3 4
9 9 9 5 1 5 4 4 5 4 5 7 11 13 14 11 10 9 8 8 8 8 7 7 9 7 5 6 6 5 5 4 4 2 2 2 1 1 2 4 6 5 5 4 5 5 5 5 3
10 10 9 4 2 2 2 3 3 3 4 7 10 11 11 10 9 8 8 9 8 7 6 6 7 6 5 4 4 2 2 3 3 2 2 1 1 0 1 2 3 4 4 3 4 5 4 3 2
10 10 9 4 2 1 1 1 2 2 3 6 9 9 10 9 7 7 7 8 8 7 7 6 7 5 4 3 2 2 2 2 2 2 1 1 0 0 1 0 1 2 1 2 2 2 2 1 1
10 10 8 4 3 2 2 2 2 3 3 6 9 9 9 8 8 7 6 7 8 6 6 7 6 5 4 3 1 1 1 1 2 2 1 0 0 0 1 1 1 1 0 0 0 0 1 1 0
8 9 7 6 6 6 6 6 6 5 6 7 9 9 8 7 8 8 7 7 8 7 6 6 7 6 4 3 0 0 1 1 1 2 2 1 1 1 1 0 0 1 1 1 1 1 0 1 1
10 9 8 9 9 8 8 8 9 8 7 8 9 9 9 7 7 7 7 6 7 7 6 6 7 7 5 3 2 1 1 1 1 1 2 1 0 1 1 1 0 1 1 1 0 1 1 0 1
12 11 10 11 11 10 10 9 8 9 9 8 7 8 9 8 8 6 7 5 5 6 6 5 5 6 5 3 2 1 1 1 1 1 2 1 0 1 1 1 1 1 0 1 0 0 1 0 0
13 13 12 12 12 11 11 9 9 8 9 9 8 7 8 8 8 7 7 7 6 5 5 5 4 5 4 3 2 2 1 1 1 1 2 1 0 0 0 1 1 2 1 0 1 1 1 1 0
11 11 11 12 11 11 11 9 9 9 9 9 8 8 8 7 7 8 8 8 6 5 5 5 4 4 4 3 2 1 1 1 1 1 2 2 0 0 1 0 0 2 1 1 1 1 1 1 1
12 10 10 11 8 8 9 9 9 9 9 8 8 8 8 9 8 8 8 7 6 5 5 5 4 4 3 2 3 2 2 1 1 1 2 2 1 0 0 1 0 1 0 0 1 1 1 1 1
14 13 12 10 7 8 9 9 9 10 10 9 8 8 7 8 8 9 9 9 7 5 5 5 4 4 3 2 1 2 2 1 1 1 2 1 1 0 0 0 0 0 0 0 1 1 1 1 0
14 13 11 8 8 8 8 10 11 10 8 7 7 7 7 8 9 9 10 9 9 7 5 5 4 4 2 2 1 1 1 1 1 2 2 1 1 1 1 0 1 0 0 0 1 1 1 1 1
13 12 10 10 10 9 10 10 9 9 10 10 9 7 7 7 9 9 10 10 9 9 7 6 5 4 3 2 1 1 2 1 1 1 1 1 1 0 1 1 0 1 1 0 1 0 1 1 1
12 10 9 11 11 12 12 11 8 9 10 11 10 8 6 6 8 9 8 8 9 9 8 7 6 4 3 2 2 1 1 1 1 1 1 1 1 1 0 0 0 0 1 0 1 1 1 1 1
10 10 10 11 11 14 13 12 7 5 7 9 8 7 6 5 6 7 7 8 7 7 8 8 6 4 3 2 2 1 1 2 1 1 1 1 1 1 0 1 1 0 1 1 1 0 1 1 2
10 9 8 9 10 12 10 10 5 6 5 6 7 7 7 6 6 6 7 7 7 7 7 8 7 5 4 3 2 1 1 2 1 0 0 0 1 1 1 1 1 1 1 1 1 1 1 2 2
11 12 10 9 9 9 8 8 5 5 7 7 6 6 7 6 6 6 6 6 7 8 7 7 7 5 5 4 3 2 1 1 1 1 1 1 1 1 1 1 1 1 1 1 1 1 2 1 2
12 12 13 11 13 11 7 5 4 4 6 6 6 7 6 6 6 6 6 5 5 6 6 7 7 6 5 4 3 3 2 1 1 1 0 1 1 1 2 1 1 1 1 1 1 1 1 1 2
13 10 8 9 9 11 9 7 5 6 4 5 5 5 6 5 6 7 7 6 5 5 6 6 6 6 5 4 3 3 2 2 1 1 1 1 1 1 1 1 1 1 1 1 1 2 1 1 2
12 13 11 8 9 9 9 4 1 5 4 5 6 7 6 6 6 6 7 6 6 6 6 5 5 5 5 4 3 2 2 2 2 1 1 1 1 1 1 1 1 1 1 1 1 2 2 2 2
11 12 11 9 9 10 10 4 1 3 4 5 5 6 7 6 6 6 6 5 5 5 4 4 4 4 4 4 4 3 3 3 2 1 1 1 1 0 0 1 1 2 1 1 1 2 2 2 2
Wind_Direction
244 241 234 249 245 242 360 64 69 66 63 57 51 56 61 55 59 88 106 100 103 109 113 107 99 96 94 89 85 83 82 83 83 80 79 79 79 77 76 72 72 76 78 79 81 81 83 86 86
266 261 246 245 254 28 32 64 71 68 64 72 68 65 72 70 76 97 101 102 107 112 115 109 107 102 99 93 87 83 83 84 87 84 82 82 84 82 80 77 74 77 79 80 81 81 81 82 82
264 261 264 250 269 60 61 66 80 83 77 73 80 68 65 75 85 97 110 112 111 114 115 115 115 110 105 99 93 88 85 85 87 87 85 87 88 85 81 79 76 78 79 81 80 80 81 82 85
263 246 235 248 118 106 114 88 87 95 91 78 82 84 77 70 92 107 120 116 118 120 118 122 121 118 113 106 101 95 88 87 86 87 89 89 91 90 86 81 77 80 81 81 79 76 77 76 77
249 261 253 263 111 102 85 81 77 77 80 83 86 93 90 85 97 112 120 121 126 122 120 127 127 124 120 116 110 102 97 92 87 89 92 94 97 99 97 90 84 81 81 81 81 83 80 76 72
257 257 260 261 102 105 91 96 89 81 87 97 99 102 101 108 112 125 127 127 120 115 117 128 133 132 130 127 121 114 108 106 99 95 99 110 117 120 115 109 100 93 89 85 85 85 78 67 53
262 276 273 261 170 142 104 90 92 92 91 85 97 106 113 115 123 131 129 125 115 115 121 130 137 140 141 139 134 128 123 121 119 115 116 135 156 151 148 142 133 129 118 112 106 100 105 101 7
262 280 282 264 202 129 105 97 93 89 87 90 91 101 120 123 140 135 127 119 114 119 128 136 138 142 151 148 144 140 140 141 138 145 161 176 169 165 170 163 164 170 173 170 172 196 197 218 236
262 269 273 261 173 122 121 119 104 86 93 91 87 99 119 135 147 137 130 121 117 118 127 134 137 145 153 147 143 153 163 164 160 177 195 201 207 185 177 161 167 188 203 205 206 220 212 223 226
243 260 267 286 60 115 129 134 133 133 124 110 101 108 124 140 143 140 137 132 128 129 132 133 133 139 147 136 140 166 167 165 184 168 181 212 231 193 153 156 181 196 210 219 217 219 217 228 230
240 251 269 300 18 90 141 156 140 151 141 123 120 131 136 143 148 149 144 140 136 135 129 129 125 126 131 124 146 158 158 160 184 161 165 184 207 172 138 159 176 200 206 219 213 213 224 222 221
243 252 264 286 356 286 234 189 178 179 138 129 126 141 142 151 155 153 148 143 138 138 135 130 122 120 113 108 130 147 146 157 154 136 161 158 167 24 18 90 198 206 208 209 203 211 206 229 208
237 250 256 257 261 262 257 242 229 192 159 133 136 149 155 163 156 153 147 139 132 136 141 129 119 114 105 98 99 125 117 125 122 127 142 89 102 51 35 23 351 305 264 232 297 315 144 163 238
245 249 244 240 229 224 230 231 231 215 182 168 162 162 165 167 161 156 157 147 143 145 140 131 132 121 119 122 131 82 123 108 111 119 112 87 9 54 39 21 345 318 337 19 336 328 11 86 87
255 246 241 233 227 224 226 233 225 213 200 193 178 168 160 166 163 158 152 145 142 140 137 140 145 134 137 146 180 174 170 144 130 117 113 113 35 49 351 310 277 315 337 341 329 358 344 75 85
241 237 237 233 219 214 226 234 226 202 193 201 190 174 164 170 172 159 143 134 129 137 137 150 156 141 144 150 192 213 182 138 124 108 106 100 12 67 343 319 318 310 314 277 226 294 317 22 40
231 231 232 235 215 210 219 225 221 204 196 200 193 180 173 175 170 157 146 135 131 130 141 150 141 140 152 163 189 213 148 114 109 97 102 106 16 59 261 308 326 286 272 272 296 69 350 313 345
236 229 234 236 216 210 223 223 222 204 203 201 192 184 178 176 176 158 145 137 131 128 129 135 138 137 152 162 183 215 167 148 128 115 97 104 101 46 299 255 308 299 306 356 3 15 314 295 265
254 262 259 252 227 217 228 224 226 212 201 205 198 193 185 177 161 140 139 140 135 131 135 134 141 137 155 174 190 196 192 182 162 140 113 118 115 109 241 354 3 295 305 330 334 8 291 276 240
256 251 250 249 232 230 240 236 232 221 206 204 203 194 191 171 152 148 150 152 144 142 147 137 142 144 168 172 189 186 180 178 161 115 115 134 133 101 257 2 342 321 330 271 334 353 309 284 266
251 255 255 258 256 241 244 246 236 227 211 200 203 191 190 172 158 160 159 156 150 152 157 155 145 140 154 151 184 189 145 174 141 139 136 127 91 90 27 70 1 296 229 106 302 294 281 297 308
248 249 259 260 258 257 242 250 230 214 203 195 204 198 185 178 162 165 163 159 158 159 160 140 129 132 147 164 176 182 166 154 117 111 119 131 137 125 29 50 61 20 334 119 276 85 298 287 300
252 264 260 262 259 263 254 254 237 210 203 191 192 193 180 172 163 163 159 155 159 157 151 139 134 141 147 160 153 160 131 102 95 93 137 162 149 128 118 117 90 3 312 356 320 0 316 284 278
257 262 256 255 255 251 250 256 240 218 203 188 178 182 168 165 159 155 148 147 148 145 138 132 137 145 144 147 143 155 113 92 79 94 120 158 133 122 66 89 79 13 302 304 282 284 270 277 278
237 246 249 242 238 246 242 242 235 195 165 174 172 165 161 159 155 147 139 140 139 135 135 139 149 149 145 144 139 129 118 140 125 74 89 66 95 118 92 46 46 333 289 290 288 265 281 271 280
228 235 241 251 257 264 256 244 218 181 138 144 145 142 138 145 148 145 137 135 140 146 140 140 144 145 148 148 141 124 126 159 119 80 8 49 38 81 88 64 35 339 311 310 310 286 264 259 267
229 235 243 256 270 269 253 251 170 148 132 132 142 151 151 151 143 133 126 128 139 137 137 141 141 144 150 150 149 140 144 126 95 110 90 50 25 60 74 42 19 333 333 319 309 284 292 276 264
242 248 255 253 267 271 265 238 216 176 165 152 160 160 150 149 139 137 130 133 130 132 128 132 142 149 153 147 159 154 145 132 126 128 107 77 49 57 81 49 12 351 343 322 300 289 300 310 297
232 237 244 257 260 269 272 270 190 163 172 184 179 163 161 154 141 133 135 135 131 129 135 139 147 151 149 149 147 138 141 146 153 145 116 95 68 56 75 40 340 316 311 317 313 310 315 304 303
244 243 242 248 254 263 270 265 116 142 177 178 167 153 145 144 139 130 128 135 134 130 127 135 149 153 154 156 155 154 155 152 150 142 127 99 64 59 44 5 332 326 334 353 330 310 314 308 306